Regional Weather Roundup
Issued by NWS

Home | Current Version | Previous Version | Text Only | Print | Product List | Glossary On
Versions: 1 2 3 4 5 6 7 8 9 10 11 12 13 14 15 16 17 18 19 20 21 22 23 24 25 26 27 28 29 30 31 32 33 34 35 36 37 38 39 40 41 42 43 44 45 46 47 48 49 50
000
ASCA44 KEWX 280512
RWRMX

LATIN AMERICA AND CARIBBEAN REGIONAL WEATHER ROUNDUP
NATIONAL WEATHER SERVICE AUSTIN/SAN ANTONIO TX
1200 AM CDT FRI APR 28 2017

NOTE: "FAIR" INDICATED FEW OR NO CLOUDS BELOW 12,000 FEET WITH NO
SIGNIFICANT WEATHER AND/OR OBSTRUCTIONS TO VISIBILITY.

BAJA CALIFORNIA

CITY           SKY/WX    TMP DP  RH WIND       PRES   REMARKS

NORTHWESTERN MEXICO

CITY           SKY/WX    TMP DP  RH WIND       PRES   REMARKS

NORTHEASTERN MEXICO

CITY           SKY/WX    TMP DP  RH WIND       PRES   REMARKS

WESTERN MEXICO

CITY           SKY/WX    TMP DP  RH WIND       PRES   REMARKS

CENTRAL MEXICO

CITY           SKY/WX    TMP DP  RH WIND       PRES   REMARKS

SOUTHERN MEXICO

CITY           SKY/WX    TMP DP  RH WIND       PRES   REMARKS

YUCATAN PENINSULA

CITY           SKY/WX    TMP DP  RH WIND       PRES   REMARKS
MERIDA         MOCLDY    84  73  70 SE12      29.77S HX  91
TAPACHULA      PTCLDY    79  73  83 CALM      29.84R

CENTRAL AMERICA

CITY           SKY/WX    TMP DP  RH WIND       PRES   REMARKS
MANAGUA        DRIZZLE  N/A N/A N/A E7          N/A

CARIBBEAN

CITY           SKY/WX    TMP DP  RH WIND       PRES   REMARKS
CURACAO        PTCLDY    81  75  83 E16       29.89F
KINGSTON       PTCLDY    82  73  74 SE14      29.92S
NASSAU         PTCLDY    81  66  61 E6        30.03F
SAN JUAN       MOCLDY    79  75  89 E13       30.01F
SANTO DOMINGO  MOCLDY    75  73  94 NE5       29.97F
ST. CROIX      CLOUDY    79  73  83 NE8       30.01
ST. MAARTEN    PTCLDY    79  73  83 E10       30.00F
ST. THOMAS     MOCLDY    79  73  83 E15       30.01F

$$





USA.gov is the U.S. government's official web portal to all federal, state and local government web resources and services.